{"data":{"norad_id":82783,"intl_designator":"","name":"UNKNOWN","alt_names":[],"object_type":"UNKNOWN","status":"UNKNOWN","operator":null,"country":null,"launch_date":null,"launch_site_code":null,"launch_vehicle":null,"mission":null,"orbit_class":"UNKNOWN","rcs_meters":null,"size_class":null,"mass_kg":null,"dimensions":null,"purposes":[],"wikipedia_slug":null,"has_3d_model":false,"image_url":null,"decayed_at":null,"tle_current":{"epoch":"2026-05-23T16:05:50.586432Z","epoch_age_seconds":186105,"freshness":"STALE","line1":"1 82783U          26143.67072438  .00000289  00000+0  81714-3 0  9993","line2":"2 82783  90.3497  43.3865 0026737  36.2162 324.0769 13.09234844525546","mean_motion":13.09234844,"eccentricity":0.0026737,"inclination_deg":90.3497,"raan_deg":43.3865,"arg_perigee_deg":36.2162,"mean_anomaly_deg":324.0769,"bstar":0.00081714,"rev_number":52554,"period_min":109.9879067991,"perigee_km":1205.788818525,"apogee_km":1246.451824125,"semimajor_km":7604.257321325,"source":"CELESTRAK","updated_at":"2026-05-25T13:38:11.195339Z"}}}